Probability
3 16 68 71 68 77 68 74 74 71 68 65 65 71 71 71 74 81 71 71 71 71 74 71 74 81 77 81 81 71 68 71 71 61 68 74 77 77 71 74 58 42 65
10 32 65 68 71 68 71 65 77 74 71 68 68 68 68 61 65 68 71 71 68 71 68 71 71 74 65 68 71 71 68 71 68 65 65 68 68 74 68 65 52 45 61
23 35 58 65 71 77 81 77 77 71 71 68 65 61 65 58 68 71 71 65 65 68 68 68 68 74 68 71 74 74 71 65 61 65 58 42 52 71 71 61 55 55 52
23 35 48 71 77 74 84 77 77 74 74 74 74 61 61 65 58 61 58 58 61 68 68 58 61 68 71 74 77 74 71 61 61 48 29 32 42 61 68 71 61 52 48
19 26 45 71 71 84 77 84 81 74 68 65 65 74 65 65 58 61 58 55 58 68 68 65 61 61 68 68 65 58 55 48 42 19 13 19 32 65 65 61 61 61 52
23 35 42 68 68 77 77 74 74 71 71 68 71 65 65 61 61 58 58 65 65 65 65 61 58 58 61 58 61 55 48 39 26 6 6 13 32 58 58 58 61 61 58
26 39 42 71 71 71 74 74 77 74 81 65 68 65 58 61 58 61 65 61 61 58 65 61 61 58 55 52 58 48 52 29 6 6 6 16 29 52 48 55 55 52 48
32 29 42 61 68 74 74 81 77 68 71 74 68 68 61 65 65 65 61 61 52 55 61 48 55 45 42 39 42 39 45 39 13 10 13 19 32 52 48 55 48 39 39
32 26 32 39 52 71 77 74 77 77 74 74 71 71 68 65 68 68 74 65 58 55 55 39 35 45 42 35 45 52 48 39 16 16 13 16 29 48 45 45 48 42 48
19 19 19 32 39 45 45 68 77 74 74 74 71 71 65 61 52 65 74 65 55 48 42 32 29 42 39 39 39 42 45 35 6 16 13 13 26 45 42 42 45 42 39
19 16 16 19 19 23 35 52 55 65 68 65 65 68 52 19 19 39 42 55 42 39 32 29 32 39 35 35 29 29 26 13 10 3 6 19 26 35 52 52 52 48 35
13 16 13 13 16 16 29 23 23 23 26 19 23 26 16 13 10 19 39 42 32 39 39 39 39 35 32 16 23 19 16 13 10 6 6 29 39 39 55 55 58 52 39
6 10 13 13 10 10 10 13 10 10 10 10 13 10 6 6 6 10 6 10 10 23 16 19 23 23 16 10 13 6 10 13 10 10 19 32 39 45 52 58 61 61 45
6 6 6 10 6 10 6 10 10 10 10 10 6 6 3 3 0 0 0 0 0 0 6 10 3 6 6 6 3 3 3 3 0 6 13 19 48 58 58 55 58 55 55
3 6 3 3 3 6 3 3 6 6 10 6 3 0 0 0 0 3 3 0 0 0 0 0 0 3 3 3 3 3 6 6 10 6 10 16 42 58 55 42 45 52 48
3 0 0 0 0 0 0 0 0 3 3 0 0 0 3 0 3 3 0 0 0 0 0 0 0 0 0 0 3 6 6 6 10 10 6 19 35 55 58 48 52 52 52
0 0 0 0 3 0 0 0 0 0 0 0 0 3 3 3 3 0 0 0 0 0 0 0 3 0 0 0 0 0 6 6 6 6 3 6 19 29 58 61 55 45 52
3 3 0 0 3 0 0 3 3 0 0 3 3 3 6 3 0 0 0 0 0 0 0 0 0 0 0 0 0 0 0 3 3 0 0 0 6 13 32 45 48 45 55
3 6 6 3 0 0 0 6 6 10 6 3 3 3 3 3 3 0 0 0 0 0 0 0 3 0 0 0 0 0 0 0 0 0 0 0 0 6 10 16 42 52 39
3 6 6 3 0 0 3 6 6 10 10 6 3 3 3 6 3 0 0 0 0 3 3 3 0 0 0 0 0 0 0 0 0 0 0 0 3 0 3 6 10 23 32
6 6 6 6 3 3 6 6 13 13 10 6 6 6 10 3 3 3 3 3 3 3 3 3 0 0 0 0 0 0 0 0 0 0 0 0 3 0 6 3 6 6 6
6 6 3 3 3 6 3 6 6 13 13 10 13 6 10 13 6 6 3 3 3 3 3 0 0 0 3 0 0 0 0 0 0 0 0 0 0 0 0 0 6 10 6
3 10 10 3 6 3 13 10 19 19 16 16 19 13 10 6 6 3 3 3 3 3 0 0 0 0 3 3 0 0 3 3 0 0 0 0 0 0 0 0 0 10 6
3 6 6 6 6 13 19 13 19 23 29 19 10 13 16 10 10 6 10 6 0 0 0 0 0 0 0 0 0 0 0 0 3 0 0 0 0 0 0 0 0 3 10
10 6 6 6 6 10 19 19 16 19 16 10 10 10 10 16 19 13 13 3 3 3 0 0 0 0 0 0 0 0 0 0 0 0 0 0 0 0 0 0 0 0 3
6 6 13 10 10 6 19 23 26 26 19 13 10 10 13 16 13 10 10 10 6 6 6 6 0 0 3 0 0 0 0 0 0 0 0 0 0 0 0 0 0 0 0
Height
5861 5861 5862 5862 5862 5863 5863 5863 5864 5865 5865 5866 5867 5868 5868 5868 5869 5870 5871 5872 5873 5874 5875 5876 5878 5880 5881 5883 5884 5885 5886 5887 5888 5889 5890 5891 5891 5892 5892 5893 5893 5893 5894
5862 5862 5862 5863 5863 5864 5864 5864 5865 5865 5866 5868 5868 5869 5870 5869 5870 5871 5872 5873 5874 5875 5876 5878 5879 5881 5882 5883 5884 5886 5887 5888 5889 5890 5890 5891 5892 5892 5893 5893 5893 5894 5894
5862 5863 5863 5864 5864 5865 5865 5865 5866 5866 5867 5869 5870 5871 5871 5871 5872 5872 5873 5874 5876 5877 5878 5879 5880 5881 5882 5884 5885 5886 5887 5888 5889 5890 5891 5892 5892 5893 5893 5894 5894 5895 5895
5863 5864 5864 5865 5865 5866 5866 5866 5867 5868 5869 5870 5871 5872 5872 5873 5874 5875 5875 5876 5877 5879 5880 5881 5881 5882 5883 5885 5886 5887 5888 5889 5890 5891 5891 5892 5893 5893 5894 5894 5895 5895 5896
5865 5865 5865 5865 5866 5867 5867 5868 5868 5869 5870 5871 5872 5873 5873 5874 5875 5876 5877 5878 5879 5880 5881 5882 5882 5883 5884 5885 5886 5887 5888 5889 5890 5891 5891 5892 5893 5893 5894 5894 5895 5895 5896
5865 5866 5866 5865 5867 5868 5868 5869 5869 5870 5871 5872 5873 5874 5874 5875 5876 5877 5878 5879 5880 5881 5882 5883 5883 5884 5885 5886 5887 5888 5889 5889 5890 5891 5891 5892 5893 5893 5894 5894 5895 5895 5896
5867 5867 5867 5867 5868 5869 5869 5870 5870 5871 5872 5873 5874 5875 5875 5876 5877 5878 5879 5880 5881 5882 5882 5883 5884 5885 5886 5886 5887 5888 5889 5890 5890 5891 5891 5892 5893 5893 5894 5894 5895 5895 5896
5868 5868 5868 5868 5869 5870 5870 5871 5871 5872 5873 5874 5874 5875 5876 5877 5878 5878 5879 5880 5881 5882 5883 5883 5884 5885 5886 5886 5887 5888 5889 5890 5890 5891 5891 5892 5893 5894 5894 5894 5895 5894 5895
5869 5869 5870 5870 5870 5871 5871 5872 5872 5873 5873 5874 5875 5876 5877 5877 5878 5879 5880 5881 5882 5883 5883 5884 5885 5885 5886 5886 5886 5888 5889 5889 5890 5891 5892 5892 5893 5893 5894 5894 5895 5895 5896
5870 5870 5871 5871 5871 5872 5872 5873 5873 5873 5874 5875 5875 5876 5877 5878 5879 5880 5881 5881 5882 5883 5884 5884 5885 5885 5885 5885 5886 5887 5888 5889 5890 5891 5892 5892 5893 5894 5894 5895 5895 5896 5896
5871 5871 5872 5872 5872 5873 5873 5874 5874 5874 5874 5875 5876 5877 5878 5879 5879 5880 5881 5881 5882 5883 5884 5884 5884 5885 5885 5885 5886 5886 5887 5888 5889 5890 5891 5892 5893 5893 5894 5894 5895 5895 5896
5873 5873 5873 5873 5873 5873 5874 5874 5874 5874 5875 5876 5876 5877 5878 5879 5880 5881 5881 5882 5882 5883 5883 5884 5884 5884 5884 5884 5884 5885 5886 5887 5888 5889 5890 5892 5892 5893 5894 5894 5895 5895 5895
5875 5874 5874 5875 5875 5874 5875 5875 5875 5875 5875 5876 5877 5878 5878 5879 5880 5881 5881 5882 5882 5883 5883 5883 5883 5884 5884 5883 5882 5882 5883 5885 5887 5888 5890 5891 5891 5892 5892 5893 5894 5894 5894
5876 5876 5876 5876 5876 5876 5876 5876 5876 5875 5876 5876 5877 5878 5879 5879 5880 5880 5881 5882 5882 5882 5882 5883 5883 5883 5883 5882 5881 5881 5882 5884 5885 5887 5889 5889 5890 5891 5891 5892 5892 5893 5893
5878 5878 5877 5877 5877 5877 5877 5876 5875 5875 5875 5876 5877 5878 5879 5879 5880 5880 5881 5881 5882 5882 5882 5882 5882 5882 5882 5881 5881 5881 5882 5883 5885 5886 5887 5888 5889 5889 5890 5891 5891 5891 5891
5880 5879 5879 5879 5879 5878 5878 5877 5876 5875 5876 5877 5878 5878 5879 5879 5879 5880 5880 5881 5881 5881 5881 5881 5881 5882 5882 5882 5881 5882 5882 5883 5884 5885 5886 5887 5887 5888 5888 5889 5889 5889 5890
5882 5881 5881 5881 5880 5880 5879 5878 5877 5877 5877 5878 5878 5879 5879 5879 5879 5880 5880 5880 5881 5881 5881 5881 5881 5881 5882 5882 5882 5881 5882 5883 5883 5884 5884 5885 5885 5886 5886 5886 5887 5887 5888
5884 5884 5883 5882 5882 5881 5881 5880 5879 5879 5879 5879 5880 5880 5880 5880 5880 5880 5880 5880 5880 5881 5881 5881 5881 5881 5881 5882 5882 5881 5882 5882 5882 5883 5883 5883 5884 5884 5884 5885 5885 5885 5885
5886 5885 5884 5884 5883 5883 5882 5882 5881 5881 5881 5881 5881 5881 5880 5880 5880 5880 5880 5880 5880 5881 5881 5881 5881 5881 5881 5881 5881 5881 5881 5881 5881 5881 5881 5882 5882 5882 5882 5882 5883 5883 5883
5888 5887 5886 5885 5884 5884 5883 5883 5883 5883 5882 5882 5882 5881 5881 5881 5880 5880 5880 5880 5880 5880 5880 5880 5880 5880 5880 5880 5880 5880 5880 5880 5880 5879 5879 5880 5880 5880 5880 5880 5880 5880 5880
5889 5888 5888 5887 5886 5885 5884 5884 5884 5884 5883 5883 5882 5882 5881 5881 5881 5880 5880 5880 5880 5879 5879 5879 5879 5879 5879 5879 5879 5879 5879 5878 5878 5877 5877 5877 5878 5878 5878 5878 5878 5878 5877
5890 5889 5889 5888 5887 5886 5886 5885 5885 5884 5884 5883 5883 5882 5882 5881 5880 5880 5880 5880 5879 5879 5878 5878 5878 5878 5877 5877 5877 5877 5877 5877 5876 5875 5875 5875 5875 5875 5875 5875 5875 5874 5874
5891 5890 5889 5889 5888 5888 5887 5886 5885 5885 5884 5884 5883 5882 5882 5881 5880 5880 5879 5879 5879 5878 5877 5877 5876 5876 5876 5876 5875 5875 5875 5874 5874 5874 5873 5873 5872 5872 5872 5872 5871 5871 5871
5891 5891 5890 5889 5889 5888 5887 5886 5886 5885 5885 5884 5883 5883 5882 5882 5881 5880 5879 5878 5878 5877 5876 5875 5875 5874 5874 5874 5873 5873 5873 5872 5872 5871 5871 5870 5869 5869 5869 5868 5868 5867 5867
5892 5891 5890 5889 5888 5888 5887 5887 5886 5885 5885 5884 5883 5882 5882 5881 5880 5879 5878 5878 5877 5876 5875 5874 5873 5873 5873 5872 5871 5871 5870 5870 5869 5869 5868 5868 5867 5866 5865 5865 5864 5864 5863
5891 5891 5890 5889 5888 5888 5887 5886 5886 5885 5884 5884 5883 5882 5881 5880 5880 5878 5877 5876 5875 5874 5873 5872 5872 5871 5871 5870 5869 5869 5868 5868 5867 5866 5866 5865 5864 5863 5862 5861 5861 5860 5859
Wind_Speed
5 5 5 5 6 7 7 7 7 7 8 8 7 7 8 9 9 10 11 10 9 10 10 10 9 9 8 8 7 7 6 6 6 5 5 4 3 3 2 2 2 3 3
5 5 5 5 6 7 7 7 7 7 8 8 7 8 8 9 10 10 10 10 10 10 9 9 8 8 8 7 7 7 6 6 6 5 5 4 4 3 3 2 2 3 3
5 5 5 6 6 7 8 8 7 7 8 7 7 7 7 8 8 10 10 10 10 10 9 8 7 8 7 6 6 6 6 6 5 5 5 4 4 4 3 2 2 3 4
6 6 6 6 6 7 7 7 7 7 6 6 6 6 6 6 6 8 8 8 9 8 8 7 6 7 7 6 6 5 6 6 5 5 5 4 4 3 3 3 3 4 4
6 6 6 6 6 7 7 6 6 6 6 6 6 7 6 6 6 7 7 7 7 7 7 6 7 6 6 6 6 5 5 6 5 5 4 3 3 3 3 3 3 3 3
6 7 7 7 7 7 6 7 6 6 6 6 7 7 7 6 6 6 6 6 6 6 5 5 5 6 5 5 4 5 5 5 5 5 4 4 4 4 3 3 4 3 4
7 8 8 8 8 8 7 7 7 6 6 6 6 7 6 6 6 5 5 5 5 4 4 4 4 5 4 4 4 5 5 6 5 5 4 3 3 4 3 3 4 4 4
8 9 8 8 7 7 7 7 7 6 6 6 6 6 6 5 5 4 5 4 4 4 3 3 4 4 4 5 5 5 6 5 5 5 4 4 4 3 3 3 3 4 5
9 9 8 8 8 7 7 7 7 6 6 6 6 5 5 5 4 4 4 3 3 3 2 2 3 3 4 5 5 5 5 5 6 5 4 4 3 3 3 3 4 4 4
9 9 8 8 8 8 8 7 7 7 7 6 6 5 5 5 4 4 3 3 3 2 2 2 2 3 3 4 5 5 6 6 6 5 4 4 3 4 3 4 4 4 4
9 9 9 9 9 8 7 7 6 6 6 5 5 6 5 5 4 3 3 2 2 2 2 3 3 3 3 4 5 6 7 6 7 6 5 5 4 5 5 5 5 5 5
10 10 9 9 9 8 7 6 5 5 5 5 5 5 5 4 3 3 2 2 2 2 3 3 3 3 3 4 6 7 8 7 7 8 7 6 5 6 7 6 6 6 6
10 10 10 9 9 8 7 6 5 5 5 4 4 4 3 3 3 2 2 2 2 2 3 3 2 3 3 5 6 7 8 8 9 8 8 7 7 7 7 7 7 7 7
10 10 9 10 9 9 7 5 5 4 3 3 3 3 2 2 2 2 2 2 2 2 2 3 3 3 3 5 6 7 8 8 9 9 9 9 8 8 8 9 8 8 8
11 10 10 10 10 9 8 6 5 4 4 3 3 3 2 2 2 2 2 2 2 2 2 2 2 3 3 5 5 6 7 8 9 9 9 9 9 9 9 9 9 9 9
11 10 10 10 9 9 8 7 6 5 5 4 3 3 3 2 1 1 1 1 1 2 1 2 2 2 3 4 5 6 7 8 9 10 10 10 10 9 10 10 10 10 10
10 10 10 9 9 8 8 8 8 6 5 4 4 3 3 2 1 1 1 1 1 1 1 2 2 2 3 3 5 5 6 7 8 9 10 11 10 10 10 10 11 11 11
9 9 9 8 8 8 7 7 7 7 6 5 4 3 3 2 2 1 1 0 1 1 1 2 2 2 3 4 4 5 7 8 8 9 10 10 9 9 10 10 11 11 12
9 9 9 8 7 6 6 6 6 6 5 4 4 3 3 2 2 1 0 0 1 1 2 3 3 4 4 4 5 5 6 7 9 10 9 9 10 10 10 11 11 12 12
7 8 9 8 7 6 6 5 5 5 4 3 3 3 2 1 2 2 1 1 1 2 3 4 4 5 5 6 5 6 7 8 9 10 9 10 10 11 11 11 12 12 13
7 8 8 9 8 7 6 5 5 4 4 3 2 2 1 1 2 2 2 2 2 3 4 5 5 6 7 7 8 8 9 9 10 10 10 10 10 11 11 12 13 13 14
6 6 7 8 8 7 7 6 5 4 3 3 3 2 3 2 2 3 3 3 3 4 5 5 6 6 7 8 8 8 9 10 11 11 11 11 11 11 12 12 13 14 14
5 5 5 6 6 6 6 5 4 4 3 2 2 3 3 3 3 3 3 4 5 5 5 6 6 6 7 8 8 8 9 10 11 11 11 11 11 11 11 12 13 14 15
4 3 4 5 5 5 5 4 5 4 3 2 2 2 2 3 4 4 4 5 5 5 6 7 7 7 8 9 9 9 9 10 9 10 10 11 11 12 13 14 14 14 15
3 3 4 4 5 5 5 4 5 4 4 3 2 2 2 3 4 4 4 5 6 6 6 7 8 8 9 9 10 10 10 10 10 10 10 11 12 13 14 15 15 15 16
3 3 4 4 5 5 5 5 5 4 4 4 3 3 3 4 5 5 5 6 6 7 7 8 8 8 9 9 10 10 10 10 11 11 11 11 12 14 15 15 16 16 16
Wind_Direction
124 124 117 116 118 118 116 117 119 116 116 118 117 121 126 132 138 138 130 128 130 135 140 144 149 154 155 156 160 156 151 154 151 152 155 154 151 161 155 131 129 154 147
114 118 123 121 123 118 119 119 118 122 123 118 112 114 120 126 134 139 134 133 135 139 142 142 140 145 152 159 165 160 152 156 156 158 154 152 150 153 154 141 136 160 162
110 117 132 133 125 121 121 119 116 123 128 123 118 116 118 121 129 137 137 137 136 137 139 141 144 149 153 162 167 167 164 167 169 169 162 155 150 145 146 156 154 168 162
107 113 123 129 124 122 122 120 116 119 127 125 125 129 127 125 126 138 140 137 131 131 134 141 143 147 155 160 161 166 177 177 180 179 174 167 157 155 160 157 148 161 158
109 112 114 117 121 122 119 120 119 120 122 124 125 129 135 127 126 130 137 135 133 133 135 135 134 142 160 167 166 171 181 187 192 193 182 177 174 169 172 169 160 164 159
107 112 108 113 117 119 116 116 119 122 128 129 124 127 128 126 127 127 131 137 138 138 138 143 143 150 164 166 172 180 183 188 186 187 187 186 184 174 178 176 177 173 162
105 112 108 108 110 109 108 108 113 120 129 133 131 130 128 126 127 129 139 145 139 140 142 146 157 161 171 175 174 180 183 183 188 187 186 181 178 185 188 192 194 191 184
103 105 103 102 105 107 107 109 110 114 126 132 132 132 133 133 133 134 140 142 141 147 149 159 168 174 187 190 190 187 190 194 193 195 194 185 185 187 190 203 199 203 201
100 103 101 102 105 106 109 108 109 112 120 126 127 131 133 132 134 138 141 144 153 157 160 165 184 199 207 208 201 199 205 204 198 211 203 190 187 195 202 204 204 197 206
98 99 99 101 104 105 109 108 111 115 120 121 122 127 136 140 143 154 158 151 158 167 184 185 187 213 225 212 210 214 209 211 209 218 221 210 202 208 216 219 212 206 211
96 98 97 97 96 100 104 106 108 113 117 124 132 137 139 146 154 160 165 161 166 180 196 201 204 217 222 217 221 225 222 223 220 223 228 227 220 221 228 234 229 228 230
94 96 94 92 91 93 95 100 107 111 118 126 138 141 143 147 157 165 177 185 184 202 212 223 223 230 233 233 232 231 230 227 228 230 233 237 233 231 233 236 238 245 245
92 94 92 90 90 90 92 99 101 106 112 112 122 135 139 146 150 150 160 179 192 213 223 230 234 242 246 251 250 242 238 229 231 234 237 239 235 239 240 239 244 246 252
88 91 91 84 84 86 87 95 94 97 103 101 105 111 127 153 164 163 167 185 210 227 235 245 245 247 259 264 257 245 240 228 231 237 239 242 243 241 247 249 249 251 252
83 87 84 81 79 79 78 77 80 83 89 93 96 101 109 141 170 183 192 204 221 235 250 258 246 251 263 265 253 238 232 226 231 235 241 246 250 249 253 251 252 253 252
80 84 83 79 77 74 70 69 73 79 82 95 99 95 100 113 147 174 196 215 228 236 250 261 263 264 256 256 246 240 235 235 238 242 244 249 248 248 250 249 250 250 254
74 79 80 77 75 74 67 63 69 77 81 88 85 89 99 105 116 152 173 199 221 231 244 259 272 286 275 259 253 252 251 247 248 249 253 256 254 253 255 254 253 252 253
68 69 72 73 72 71 66 63 66 73 78 78 70 75 92 101 98 100 106 170 207 247 270 265 277 283 286 282 274 264 264 262 260 258 257 255 255 259 261 260 257 256 256
63 66 67 67 68 67 63 62 68 71 74 73 64 68 86 85 73 63 54 278 250 261 268 269 270 279 283 292 289 280 279 270 265 263 258 258 258 259 263 264 263 263 262
64 64 60 59 60 59 58 53 61 67 65 64 62 57 63 61 44 14 360 331 295 284 289 286 276 276 280 286 286 287 284 275 270 263 262 267 267 264 264 263 267 269 269
63 60 52 54 54 54 52 48 54 51 47 49 49 48 31 27 18 352 352 331 314 298 295 297 283 276 278 283 282 282 280 279 272 267 269 269 268 266 267 269 270 270 269
54 47 50 54 52 52 49 47 44 40 31 28 16 14 13 0 350 341 338 324 317 317 307 300 294 284 279 282 281 280 282 278 274 272 273 269 270 270 269 271 273 272 267
34 34 43 47 45 45 43 40 37 30 23 22 7 5 7 1 346 332 319 315 313 313 311 304 297 293 290 289 286 288 289 286 280 278 274 271 270 268 269 271 272 271 268
16 24 26 33 32 35 36 33 26 29 24 15 14 17 9 352 341 335 319 309 306 306 304 300 295 293 292 289 289 289 289 287 285 283 280 277 274 273 275 274 272 274 272
357 3 10 6 14 20 24 20 15 15 11 11 3 353 337 330 328 326 321 315 313 313 309 303 297 292 292 291 291 289 288 289 287 286 283 282 280 279 278 276 274 274 272
339 351 350 343 347 359 359 359 357 349 340 343 332 318 316 311 309 310 313 313 315 314 312 312 305 299 299 296 293 291 291 291 288 285 283 284 283 281 280 278 277 278 276